Location: Unspecified
(0.0000°N, 0.0000°E)
Time: 20:08:17
(UTC+00:00)

ARIANA 5 R/B - Visible Passes

Search period start: 29 April 2025 00:00
Search period end: 09 May 2025 00:00
Orbit: 230 x 31452 km, 5.6° (Epoch: 28 April)

Date Brightness Start Highest point End Pass type
(mag) Time Alt. Az. Time Alt. Az. Time Alt. Az.
30 Apr ? 01:41:07 34° ESE 01:41:07 34° ESE 09:23:34 10° E visible
30 Apr ? 19:14:56 10° W 19:34:38 60° N 19:36:01 43° NE visible
01 May ? 05:08:46 13° W 05:30:18 80° S 13:37:55 10° E visible
03 May ? 02:54:11 74° S 02:54:12 74° S 11:04:19 10° E visible
03 May ? 20:46:00 10° WNW 20:48:30 18° WNW 20:48:30 18° WNW visible
05 May ? 00:38:48 13° E 00:38:48 13° E 00:40:45 10° E visible
05 May ? 10:26:45 10° W 18:27:14 67° N 18:32:24 10° ENE visible
06 May ? 04:05:12 37° WSW 04:14:36 77° S 12:27:32 10° E visible
08 May ? 01:48:32 43° ESE 01:48:32 43° ESE 09:40:29 10° E visible
08 May ? 19:27:24 10° W 19:41:15 60° N 19:41:52 54° NE visible
